EW8682 Weather Reports


Display with metric or nautical units.
time (UTC)temp
F
wind
direction
speed
MPH
gust
MPH
rain 1hr
in
rain 24hr
in
rain mn
in
humidity
%
barometer
mb
20260831071542 67 190 0.0 2.0 0.00 0.00 0.00 69 1003.4
20260831070040 68 190 0.0 2.0 0.00 0.00 0.00 69 1003.5
20260831064537 68 190 1.0 2.0 0.00 0.00 0.00 70 1003.6
20260831063037 68 190 0.0 2.0 0.00 0.00 0.00 71 1003.5
20260831061540 69 190 0.0 2.0 0.00 0.00 0.00 70 1003.5
20260831060043 69 195 1.0 3.0 0.00 0.00 0.00 70 1003.5
20260831054535 69 195 0.0 2.0 0.00 0.00 0.00 70 1003.4
20260831053035 69 195 1.0 2.0 0.00 0.00 0.00 69 1003.4
20260831051534 70 195 0.0 2.0 0.00 0.00 0.00 68 1003.4
20260831050034 70 195 1.0 2.0 0.00 0.00 0.00 67 1003.3
20260831044534 71 195 0.0 2.0 0.00 0.00 0.00 66 1003.4
20260831043033 72 195 0.0 2.0 0.00 0.00 0.00 64 1003.3
20260831041533 73 195 0.0 1.0 0.00 0.00 0.00 63 1003.2
20260831040034 73 195 0.0 1.0 0.00 0.00 0.00 61 1003.0
20260831034534 75 195 0.0 1.0 0.00 0.00 0.00 59 1002.8
20260831033037 76 195 0.0 0.0 0.00 0.00 0.00 57 1002.5
20260831031531 78 195 0.0 1.0 0.00 0.00 0.00 54 1002.4
20260831030030 78 195 0.0 2.0 0.00 0.00 0.00 53 1002.2
20260831024529 79 195 1.0 3.0 0.00 0.00 0.00 52 1002.0
20260831023029 80 193 1.0 4.0 0.00 0.00 0.00 51 1002.0
20260831021527 81 198 2.0 4.0 0.00 0.00 0.00 50 1001.8
20260831020027 82 190 2.0 4.0 0.00 0.00 0.00 48 1001.7
20260831014526 82 180 2.0 5.0 0.00 0.00 0.00 48 1001.7
20260831013025 84 176 1.0 6.0 0.00 0.00 0.00 46 1001.8
20260831011525 85 176 3.0 6.0 0.00 0.00 0.00 45 1001.7
20260831010025 85 182 2.0 6.0 0.00 0.00 0.00 45 1001.7
20260831004524 87 186 3.0 7.0 0.00 0.00 0.00 42 1001.7
20260831003025 88 192 3.0 6.0 0.00 0.00 0.00 40 1001.5
20260831001523 88 171 3.0 7.0 0.00 0.00 0.00 39 1001.5
20260831000023 89 180 3.0 6.0 0.00 0.00 0.00 35 1001.5
20260830234529 91 178 2.0 6.0 0.00 0.00 0.00 34 1001.5
20260830233021 91 171 4.0 7.0 0.00 0.00 0.00 32 1001.6
20260830231519 91 179 3.0 7.0 0.00 0.00 0.00 35 1001.7
20260830230018 91 176 2.0 7.0 0.00 0.00 0.00 37 1001.8
20260830224516 91 181 4.0 9.0 0.00 0.00 0.00 37 1002.1
20260830223015 91 194 4.0 8.0 0.00 0.00 0.00 38 1002.2
20260830221514 91 191 3.0 8.0 0.00 0.00 0.00 37 1002.4
20260830220018 91 196 3.0 8.0 0.00 0.00 0.00 37 1002.5
20260830214513 91 174 4.0 9.0 0.00 0.00 0.00 38 1002.8
20260830213015 91 190 6.0 13.0 0.00 0.00 0.00 38 1002.8
20260830211512 92 201 4.0 10.0 0.00 0.00 0.00 38 1002.9
20260830210010 91 227 2.0 9.0 0.00 0.00 0.00 36 1003.0
20260830204508 90 182 2.0 8.0 0.00 0.00 0.00 38 1003.0
20260830203015 91 200 2.0 7.0 0.00 0.00 0.00 39 1003.2
20260830201503 90 161 3.0 9.0 0.00 0.00 0.00 41 1003.3
20260830200002 89 192 3.0 8.0 0.00 0.00 0.00 42 1003.4
20260830194606 89 198 4.0 7.0 0.00 0.00 0.00 44 1003.4
20260830193128 88 231 4.0 10.0 0.00 0.00 0.00 46 1003.6
20260830191556 87 281 2.0 8.0 0.00 0.00 0.00 48 1003.6
20260830190055 85 235 4.0 7.0 0.00 0.00 0.00 50 1003.7
20260830184552 85 203 1.0 7.0 0.00 0.00 0.00 50 1004.0
20260830183053 84 196 2.0 5.0 0.00 0.00 0.00 50 1003.9
20260830181549 84 202 4.0 7.0 0.00 0.00 0.00 51 1003.9
20260830180047 83 274 1.0 5.0 0.00 0.00 0.00 51 1003.9
20260830174550 82 184 2.0 5.0 0.00 0.00 0.00 53 1003.9
20260830173101 80 190 1.0 5.0 0.00 0.00 0.00 54 1003.9
20260830171536 79 217 0.0 3.0 0.00 0.00 0.00 57 1003.8
20260830170032 78 196 1.0 3.0 0.00 0.00 0.00 59 1003.8
20260830164532 78 200 1.0 3.0 0.00 0.00 0.00 60 1003.7
20260830163036 76 210 0.0 4.0 0.00 0.00 0.00 63 1003.8
20260830161527 77 192 2.0 4.0 0.00 0.00 0.00 62 1003.8
20260830160023 75 232 1.0 3.0 0.00 0.00 0.00 67 1003.7
20260830154522 73 127 0.0 0.0 0.00 0.00 0.00 70 1003.9
20260830153019 72 125 0.0 0.0 0.00 0.00 0.00 74 1003.8
20260830151515 70 78 0.0 0.0 0.00 0.00 0.00 77 1004.0
20260830150013 69 78 0.0 0.0 0.00 0.00 0.00 80 1003.9
20260830144509 67 76 0.0 0.0 0.00 0.00 0.00 81 1003.8
20260830143007 67 76 0.0 0.0 0.00 0.00 0.00 81 1003.7
20260830141508 66 76 0.0 0.0 0.00 0.00 0.00 82 1003.6
20260830140005 65 76 0.0 0.0 0.00 0.00 0.00 81 1003.5
20260830134502 65 76 0.0 0.0 0.00 0.00 0.00 82 1003.4
20260830133110 65 76 0.0 0.0 0.00 0.00 0.00 82 1003.2
20260830131558 65 76 0.0 0.0 0.00 0.00 0.00 81 1002.7
20260830130058 65 112 0.0 0.0 0.00 0.00 0.00 82 1002.8
20260830124557 65 115 0.0 0.0 0.00 0.00 0.00 82 1002.7
20260830123107 65 115 0.0 0.0 0.00 0.00 0.00 82 1002.6
20260830121558 66 115 0.0 0.0 0.00 0.00 0.00 81 1002.7
20260830120054 66 115 0.0 0.0 0.00 0.00 0.00 80 1002.7
20260830114608 66 115 0.0 0.0 0.00 0.00 0.00 79 1002.5
20260830113049 67 115 0.0 0.0 0.00 0.00 0.00 79 1002.4
20260830111548 67 117 0.0 0.0 0.00 0.00 0.00 78 1002.4
20260830110046 67 117 0.0 0.0 0.00 0.00 0.00 76 1002.4
20260830104546 68 117 0.0 0.0 0.00 0.00 0.00 75 1002.6
20260830103050 68 117 0.0 1.0 0.00 0.00 0.00 73 1002.5
20260830101539 68 117 0.0 1.0 0.00 0.00 0.00 71 1002.5
20260830100037 69 117 0.0 0.0 0.00 0.00 0.00 69 1002.3
20260830094539 69 117 0.0 1.0 0.00 0.00 0.00 68 1002.2
20260830093051 70 117 0.0 2.0 0.00 0.00 0.00 66 1002.3
20260830091532 71 117 0.0 1.0 0.00 0.00 0.00 67 1002.3
20260830090030 71 117 0.0 1.0 0.00 0.00 0.00 67 1002.1
20260830084527 72 117 0.0 1.0 0.00 0.00 0.00 67 1002.2
20260830083024 72 117 0.0 2.0 0.00 0.00 0.00 66 1002.2
20260830081521 73 117 1.0 2.0 0.00 0.00 0.00 65 1002.3
20260830080018 73 117 1.0 2.0 0.00 0.00 0.00 64 1002.5
20260830074515 73 117 0.0 0.0 0.00 0.00 0.00 64 1002.5
20260830073011 73 117 0.0 1.0 0.00 0.00 0.00 63 1002.4